CW9352 Weather Reports


Display with metric or nautical units.
time (UTC)temp
F
wind
direction
speed
MPH
gust
MPH
rain 1hr
in
rain 24hr
in
rain mn
in
humidity
%
barometer
mb
20260506073031 73 194 2.0 4.0 0.00 0.02 0.00 90 1013.2
20260506072031 73 206 1.0 3.0 0.00 0.02 0.00 90 1013.3
20260506071051 73 194 2.0 4.0 0.00 0.02 0.00 90 1013.3
20260506062037 73 185 2.0 3.0 0.00 0.02 0.00 89 1013.7
20260506061017 73 189 2.0 5.0 0.00 0.02 0.00 89 1013.8
20260506051018 73 199 2.0 3.0 0.00 0.02 0.00 88 1014.2
20260506045018 73 196 1.0 2.0 0.00 0.02 0.02 88 1014.4
20260506044038 73 217 1.0 3.0 0.00 0.02 0.02 88 1014.5
20260506043019 73 197 1.0 2.0 0.00 0.02 0.02 87 1014.5
20260506042017 73 200 1.0 3.0 0.00 0.02 0.02 88 1014.6
20260506041018 73 193 1.0 2.0 0.00 0.02 0.02 88 1014.7
20260506040039 73 199 1.0 3.0 0.00 0.02 0.02 88 1014.7
20260506035019 73 198 1.0 2.0 0.00 0.02 0.02 88 1014.8
20260506034020 73 194 1.0 3.0 0.00 0.02 0.02 89 1014.7
20260506033018 73 192 2.0 3.0 0.00 0.02 0.02 89 1014.7
20260506032018 73 187 2.0 4.0 0.00 0.02 0.02 89 1014.8
20260506031018 73 191 2.0 4.0 0.00 0.02 0.02 88 1015.0
20260506030018 73 193 2.0 3.0 0.00 0.02 0.02 88 1014.8
20260506025019 73 191 2.0 3.0 0.00 0.02 0.02 88 1014.7
20260506024019 73 187 2.0 4.0 0.00 0.02 0.02 88 1014.7
20260506023019 73 189 2.0 3.0 0.00 0.02 0.02 87 1014.5
20260506022019 73 190 1.0 2.0 0.00 0.02 0.02 87 1014.5
20260506021039 73 194 2.0 3.0 0.00 0.02 0.02 87 1014.4
20260506020020 73 198 2.0 3.0 0.00 0.02 0.02 86 1014.5
20260506015040 73 196 1.0 4.0 0.00 0.02 0.02 86 1014.5
20260506014040 73 203 1.0 2.0 0.00 0.02 0.02 86 1014.4
20260506013020 73 43 1.0 3.0 0.00 0.02 0.02 85 1014.2
20260506012020 73 209 2.0 3.0 0.00 0.02 0.02 85 1014.3
20260506011020 73 208 1.0 2.0 0.00 0.02 0.02 84 1014.2
20260506010041 73 193 2.0 3.0 0.00 0.02 0.02 84 1014.2
20260506005021 73 191 1.0 3.0 0.00 0.02 0.02 83 1014.1
20260506004021 73 208 0.0 2.0 0.00 0.02 0.02 83 1014.1
20260506003021 74 189 1.0 2.0 0.00 0.02 0.02 82 1014.0
20260506002042 74 198 1.0 3.0 0.00 0.02 0.02 81 1014.1
20260506001021 74 195 1.0 3.0 0.00 0.02 0.02 80 1014.1
20260506000042 74 168 1.0 2.0 0.00 0.02 0.02 79 1014.1
20260505235022 75 192 1.0 2.0 0.00 0.02 0.02 79 1014.3
20260505234042 75 196 1.0 2.0 0.00 0.02 0.02 78 1014.2
20260505233042 75 173 1.0 3.0 0.00 0.02 0.02 78 1014.1
20260505232022 75 181 1.0 3.0 0.00 0.02 0.02 77 1014.2
20260505231023 76 167 2.0 4.0 0.00 0.02 0.02 77 1014.2
20260505230023 76 134 1.0 3.0 0.00 0.02 0.02 77 1014.2
20260505225042 75 176 1.0 3.0 0.00 0.02 0.02 77 1014.1
20260505224019 76 141 2.0 5.0 0.00 0.02 0.02 76 1014.0
20260505223059 76 155 2.0 5.0 0.00 0.02 0.02 75 1013.9
20260505222019 76 178 2.0 4.0 0.00 0.02 0.02 75 1013.8
20260505221019 77 177 2.0 6.0 0.00 0.02 0.02 75 1013.8
20260505220022 77 164 2.0 5.0 0.00 0.02 0.02 73 1013.8
20260505215022 77 185 2.0 6.0 0.00 0.02 0.02 73 1014.2
20260505214020 77 158 2.0 5.0 0.00 0.02 0.02 74 1014.2
20260505213023 78 154 2.0 5.0 0.00 0.02 0.02 73 1014.0
20260505212027 77 188 2.0 4.0 0.00 0.02 0.02 74 1014.1
20260505211047 77 149 1.0 3.0 0.00 0.02 0.02 74 1014.1
20260505210108 78 206 2.0 5.0 0.00 0.02 0.02 74 1014.2
20260505205027 78 161 2.0 3.0 0.00 0.02 0.02 72 1014.3
20260505204030 78 209 3.0 5.0 0.00 0.02 0.02 73 1014.3
20260505203021 78 181 3.0 5.0 0.00 0.02 0.02 73 1014.4
20260505202106 77 144 2.0 4.0 0.00 0.02 0.02 74 1014.5
20260505201018 78 159 2.0 6.0 0.00 0.02 0.02 75 1014.7
20260505200021 77 189 2.0 7.0 0.00 0.02 0.02 75 1014.8
20260505195019 77 183 3.0 7.0 0.00 0.02 0.02 75 1014.8
20260505194018 77 202 2.0 6.0 0.00 0.02 0.02 76 1014.9
20260505193039 77 111 2.0 6.0 0.00 0.02 0.02 76 1014.9
20260505192019 76 143 2.0 7.0 0.00 0.02 0.02 76 1015.1
20260505191019 77 128 3.0 6.0 0.00 0.02 0.02 75 1015.2
20260505190019 76 159 2.0 7.0 0.00 0.02 0.02 77 1015.2
20260505185026 76 173 2.0 5.0 0.00 0.02 0.02 76 1015.3
20260505184026 76 140 2.0 5.0 0.00 0.02 0.02 76 1015.4
20260505183027 77 117 2.0 5.0 0.00 0.02 0.02 76 1015.4
20260505182022 76 175 3.0 5.0 0.00 0.02 0.02 76 1015.6
20260505181103 77 159 2.0 6.0 0.00 0.02 0.02 76 1015.6
20260505180027 77 134 2.0 5.0 0.00 0.02 0.02 76 1015.4
20260505175017 77 148 2.0 6.0 0.00 0.02 0.02 76 1015.6
20260505174020 77 169 2.0 5.0 0.00 0.02 0.02 76 1015.6
20260505173020 77 127 2.0 5.0 0.00 0.02 0.02 75 1015.4
20260505172100 76 83 3.0 7.0 0.00 0.02 0.02 75 1015.4
20260505171017 76 85 3.0 5.0 0.00 0.02 0.02 75 1015.5
20260505170018 76 172 3.0 6.0 0.00 0.02 0.02 75 1015.6
20260505165019 75 143 3.0 7.0 0.01 0.02 0.02 75 1015.6
20260505164041 76 138 3.0 8.0 0.02 0.02 0.02 74 1015.7
20260505163018 77 182 2.0 5.0 0.02 0.02 0.02 73 1015.7
20260505162028 77 162 1.0 3.0 0.02 0.02 0.02 74 1015.7
20260505161029 76 162 2.0 5.0 0.02 0.02 0.02 74 1015.6
20260505153019 76 199 2.0 6.0 0.00 0.00 0.00 70 1015.7
20260505152019 77 175 2.0 6.0 0.00 0.00 0.00 69 1015.7
20260505151019 76 167 2.0 5.0 0.00 0.00 0.00 69 1015.6
20260505125018 68 348 1.0 3.0 0.00 0.00 0.00 78 1015.1
20260505124019 65 338 1.0 3.0 0.00 0.00 0.00 83 1014.9
20260505123019 62 330 2.0 3.0 0.00 0.00 0.00 89 1014.9
20260505122039 59 318 1.0 2.0 0.00 0.00 0.00 94 1014.9
20260505121019 57 318 1.0 2.0 0.00 0.00 0.00 95 1014.9
20260505120059 56 329 1.0 2.0 0.00 0.00 0.00 95 1014.8
20260505115019 55 311 1.0 2.0 0.00 0.00 0.00 95 1014.6
20260505114020 55 302 1.0 1.0 0.00 0.00 0.00 95 1014.5
20260505113020 55 321 1.0 2.0 0.00 0.00 0.00 95 1014.4
20260505112020 54 327 2.0 2.0 0.00 0.00 0.00 94 1014.3
20260505111020 54 323 2.0 2.0 0.00 0.00 0.00 94 1014.2
20260505102021 54 321 1.0 2.0 0.00 0.00 0.00 92 1014.2
20260505101021 55 319 1.0 2.0 0.00 0.00 0.00 91 1014.2
20260505100022 55 322 1.0 2.0 0.00 0.00 0.00 91 1014.0
20260505095022 55 321 1.0 2.0 0.00 0.00 0.00 90 1014.1
20260505094021 56 333 2.0 2.0 0.00 0.00 0.00 90 1014.0
20260505093022 56 328 1.0 2.0 0.00 0.00 0.00 89 1014.0
20260505092022 56 320 1.0 2.0 0.00 0.00 0.00 89 1013.8
20260505091022 56 321 1.0 2.0 0.00 0.00 0.00 88 1013.7
20260505085022 57 325 1.0 2.0 0.00 0.00 0.00 86 1013.5
20260505084022 58 304 1.0 2.0 0.00 0.00 0.00 86 1013.4
20260505083023 58 309 1.0 2.0 0.00 0.00 0.00 85 1013.4
20260505082023 58 322 1.0 2.0 0.00 0.00 0.00 84 1013.4
20260505081023 59 321 1.0 2.0 0.00 0.00 0.00 83 1013.4